Regional Weather Roundup
Issued by NWS

Home | Current Version | Previous Version | Graphics & Text | Print | Product List | Glossary On
Versions: 1 2 3 4 5 6 7 8 9 10 11 12 13 14 15 16 17 18 19 20 21 22 23 24 25 26 27 28 29 30 31 32 33 34 35 36 37 38 39 40 41 42 43 44 45 46 47 48 49 50
000
ASUS45 KPSR 230900
RWRAZ

PRELIMINARY ARIZONA REGIONAL HOURLY WEATHER ROUNDUP
NATIONAL WEATHER SERVICE PHOENIX AZ
200 AM MST WED JUL 23 2014

NOTE: FAIR INDICATES FEW OR NO CLOUDS BELOW 12,000 FEET WITH NO
SIGNIFICANT WEATHER AND/OR OBSTRUCTIONS TO VISIBILITY.

AZZ001>003-036-231000-
NORTHWEST ARIZONA

CITY           SKY/WX    TMP DP  RH WIND       PRES   REMARKS
KINGMAN        CLEAR     77  31  18 CALM      30.09F
$$

AZZ004>008-015-016-018-231000-
NORTH CENTRAL ARIZONA

CITY           SKY/WX    TMP DP  RH WIND       PRES   REMARKS
GRAND CANYON   MOCLDY    57  41  54 CALM      30.37F HAZE
WILLIAMS         N/A     59  39  47 S9        30.45R
PRESCOTT       CLEAR     69  45  41 S6        30.24S
FLAGSTAFF      PTCLDY    56  40  55 CALM      30.42S
PAYSON         PTCLDY    77  46  33 CALM      30.29F
PAGE           MOCLDY    86  34  15 CALM      30.14R
$$

AZZ009>014-017-231000-
NORTHEAST ARIZONA

CITY           SKY/WX    TMP DP  RH WIND       PRES   REMARKS
WINSLOW        NOT AVBL
SAINT JOHNS    CLOUDY    73  51  46 E6        30.30F
WINDOW ROCK    CLOUDY    68  47  46 CALM      30.43F
$$

AZZ023-231000-
GREATER PHOENIX AREA

CITY           SKY/WX    TMP DP  RH WIND       PRES   REMARKS
PHOENIX        CLOUDY    99  48  17 E5        29.86S
BUCKEYE          N/A     86  46  25 N7        29.87S
DEER VALLEY    CLOUDY    92  47  21 E6        29.89S
SCOTTSDALE     MOCLDY    96  51  21 CALM      29.91S
MESA-GATEWAY   CLOUDY    93  46  20 E8        29.93S
$$

AZZ027-028-231000-
SOUTHWEST MARICOPA COUNTY AND PINAL COUNTY

CITY           SKY/WX    TMP DP  RH WIND       PRES   REMARKS
CASA GRANDE    CLOUDY    97  48  19 CALM      29.92S
$$

AZZ503-504-507>509-231000-
SOUTHEAST ARIZONA

CITY           SKY/WX    TMP DP  RH WIND       PRES   REMARKS
TUCSON         CLOUDY    90  57  32 SE14      30.05F
NOGALES        CLOUDY    81  56  42 VRB6      30.16F
SAFFORD        PTCLDY    82  59  45 SE8       30.13F
$$

AZZ020-021-025-026-031-231000-
SOUTHWEST ARIZONA

CITY           SKY/WX    TMP DP  RH WIND       PRES   REMARKS
YUMA           NOT AVBL
$$

CAZ031-033-041-043-047-048-061-231000-
SOUTHERN CALIFORNIA

CITY           SKY/WX    TMP DP  RH WIND       PRES   REMARKS
DOWNTOWN L.A.  CLEAR     70  60  70 CALM      29.99S
L.A. AIRPORT   CLEAR     67  61  81 SE5       30.00S
SAN DIEGO      PTCLDY    69  63  81 NW5       30.02S
BURBANK        CLEAR     71  56  58 E5        30.00S
ONTARIO        CLEAR     70  53  54 CALM      30.01F
RIVERSIDE      CLEAR     70  50  49 CALM      30.02S
PALM SPRINGS   CLEAR     87  50  27 S5        29.88S
EL CENTRO NAS  CLEAR     85  41  21 CALM      29.81S
IMPERIAL       CLEAR     83  44  25 NW6       29.81S
BLYTHE         CLEAR     94  33  11 SW6       29.82S
$$

NVZ020-UTZ003-231000-
SOUTHERN NEVADA-UTAH

CITY           SKY/WX    TMP DP  RH WIND       PRES   REMARKS
LAS VEGAS      NOT AVBL
SALT LAKE CITY PTCLDY    75  39  27 SE9       30.09S
$$

NMZ009-TXZ055-231000-
NEW MEXICO-WEST TEXAS

CITY           SKY/WX    TMP DP  RH WIND       PRES   REMARKS
ALBUQUERQUE    CLEAR     72  55  55 NW3       30.34S
EL PASO        CLOUDY    75  66  73 S3        30.20F
$$


........................KEY........................
SKY/WX - SKY CONDITION/WEATHER
TMP    - TEMPERATURE IN FAHRENHEIT
DP     - DEW POINT IN FAHRENHEIT
RH     - RELATIVE HUMIDITY IN PERCENT
WIND   - DIRECTION AND SPEED IN MILES PER HOUR (MPH)
VRB    - VARIABLE WIND DIRECTION
PRES   - MEAN SEA LEVEL PRESSURE IN INCHES OF MERCURY
         F - FALLING PRESSURE   R - RISING PRESSURE
         S - STEADY PRESSURE
VSB    - VISIBILITY IN MILES
HX     - HEAT INDEX IN FAHRENHEIT
WCI    - WIND CHILL INDEX IN FAHRENHEIT
TC     - TEMPERATURE IN CELSIUS WHICH IS ALSO KNOWN AS
         TEMPERATURE IN CENTIGRADE
AFB    - AIR FORCE BASE
         LUKE AFB IS LUKE AIR FORCE BASE
         DAVIS-MONTHAN IS DAVIS-MONTHAN AIR FORCE BASE
NAS    - NAVAL AIR STATION
         EL CENTRO NAS IS EL CENTRO NAVAL AIR STATION
N/A    - NOT AVAILABLE



USA.gov is the U.S. government's official web portal to all federal, state and local government web resources and services.